SCP
0 0 0 0 0 0 0 0 -0 -0 0 0 0 0 -0 0 -0 0 0 -0 0 -0 -0 -0 -0 -0 -0 -0 0 0 0 0
0 0 0 0 0 0 0 0 0 0 0 -0 -0 0 -0 -0 -0 -0 -0 -0 0 -0 -0 -0 -0 -0 -0 -0 -0 -0 -0 -0
0 0 0 0 0 0 0 -0 0 0 0 0 -0 -0 -0 -0 0 0 -0 -0 -0 0 0 0 0 0 0 0 -0 -0 -0 -0
0 0 0 -0 0 0 -0 0 0 -0 0 0 -0 -0 -0 0 -0 -0 0 -0 -0 0 0 0 0 0 0 0 0 -0 -0 -0
0 0 0 0 0 0 0 0 0 -0 0 0 -0 -0 -0 -0 -0 -0 0 0 -0 0 0 0 0 0 0 -0 0 0 -0 -0
0 0 0 0 0 0 0 0 -0 -0 -0 -0 -0 -0 -0 0 0 0 0 0 0 0 0 0 0 0 0 0 0 -0 -0 0
0 0 0 0 0 0 0 0 0 0 -0 -0 -0 -0 -0 0 0 0 0 0 0 0 0 0 0 0 0 0 0 0 0 0
0 0 0 0 0 -0 0 -0 0 -0 -0 -0 -0 -0 -0 0 0 0 0 0 0 0 0 0 0 0 0 0 0 0 0 0
0 -0 -0 0 0 0 -0 -0 -0 -0 -0 -0 -0 -0 -0 0 0 0 0 0 0 0 0 0 0 0 0 0 0 0 0 0
0 -0 -0 -0 0 0 0 0 -0 -0 -0 -0 -0 -0 0 0 0 0 0 0 0 0 0 0 0 0 0 0 0 0 0 0
0 -0 -0 -0 0 0 -0 -0 -0 -0 -0 -0 -0 0 0 0 0 0 0 0 0 0 0 0 0 0 0 0 0 0 0 0
-0 -0 -0 0 0 0 0 -0 -0 -0 -0 -0 -0 0 0 0 0 0 0 0 0 0 0 0 0 0 0 0 0 0 0 -0
0 0 0 0 0 0 0 -0 -0 -0 -0 0 0 -0 -0 0 0 0 0 0 0 0 0 0 0 0 0 0 0 0 0 -0
0 0 0 -0 -0 0 -0 -0 -0 -0 -0 0 0 0 0 0 0 0 0 0 0 0 0 0 0 0 0 0 0 0 0 0
0 0 0 0 0 -0 -0 0 0 -0 -0 0 0 0 0 0 0 0 0 0 0 0 0 0 0 0 0 0 0 0 0 0
0 0 0 0 -0 -0 -0 -0 -0 -0 -0 0 0 0 0 0 0 0 0 0 0 0 0 0 0 0 0 0 0 0 0 0
0 0 -0 -0 -0 0 -0 0 0 0 0 0 0 0 0 0 0 0 0 0 0 0 0 0 0 0 0 0 0 0 0 0
0 0 0 0 0 0 0 -0 -0 -0 -0 -0 0 0 0 0 0 0 0 0 0 0 0 0 0 0 0 0 0 0 0 0
0 0 0 0 0 0 0 0 0 0 0 0 0 -0 0 0 0 0 0 0 0 0 0 0 0 0 0 0 0 0 0 0
0 0 0 0 0 0 0 0 0 0 0 0 0 0 0 0 0 0 0 0 0 0 0 0 0 0 0 0 0 0 0 0
Wind_Speed_500mb
7 6 7 7 6 6 31 40 7 9 18 11 8 36 28 23 24 23 25 26 27 25 24 23 20 18 16 14 12 11 12 13
8 5 4 8 10 12 8 20 25 28 13 19 16 26 29 29 26 29 31 31 32 33 33 31 29 27 24 19 16 14 12 10
8 9 9 6 5 20 8 1 23 15 11 15 29 39 36 36 34 35 41 41 38 34 30 26 23 23 23 22 19 16 11 6
2 7 4 10 22 22 8 13 23 36 26 11 43 41 42 42 41 42 43 41 35 30 30 29 25 24 23 22 21 19 16 15
10 5 9 10 29 21 19 24 17 41 9 27 57 45 47 50 46 43 39 33 30 26 21 16 21 23 23 23 25 24 22 22
8 9 7 13 20 19 30 7 42 44 13 18 61 53 53 53 49 42 34 27 20 12 7 7 9 17 20 24 28 31 28 22
10 13 6 20 10 29 22 37 19 21 23 50 63 58 59 57 52 41 33 23 16 13 9 4 10 14 20 25 31 35 30 22
16 18 12 30 30 39 15 39 0 33 48 59 70 66 64 63 53 40 32 26 25 15 9 5 9 16 24 31 37 38 37 34
15 46 47 32 30 20 41 9 37 66 62 63 75 69 64 55 46 37 32 25 20 14 5 4 13 22 28 33 39 38 36 37
24 38 48 36 34 17 39 17 57 64 71 69 74 75 66 57 49 43 33 20 15 11 7 9 14 21 31 36 39 39 40 40
47 59 47 43 24 22 38 24 53 59 67 70 73 67 60 58 49 41 36 31 23 18 14 12 18 26 30 34 37 39 41 41
41 42 45 19 17 30 27 52 58 67 67 65 72 70 67 61 54 47 41 31 27 21 12 13 22 26 29 30 33 37 40 41
13 18 11 22 4 10 48 57 64 67 65 63 63 64 67 62 55 47 39 29 21 15 13 19 22 23 24 26 30 34 38 41
5 12 18 11 11 10 59 59 50 56 51 61 65 69 67 62 56 48 40 29 22 15 16 21 22 21 23 25 27 32 33 41
3 14 8 12 7 18 60 49 50 54 55 64 66 76 81 72 62 55 47 36 21 14 19 21 20 20 21 23 25 27 32 36
12 17 15 13 11 19 54 49 56 58 62 67 75 81 77 72 64 59 48 30 15 18 20 20 22 23 21 20 22 22 30 22
11 14 11 20 14 26 53 45 50 62 68 70 77 79 79 73 70 63 45 31 23 18 13 16 22 24 21 18 18 20 21 17
8 6 9 3 9 18 39 54 69 71 62 75 75 79 78 74 65 55 45 22 15 11 12 16 21 24 20 17 15 16 10 10
10 7 5 6 16 9 13 34 56 58 64 76 89 90 83 75 65 48 31 18 12 11 10 14 14 18 17 12 16 11 5 6
7 8 10 7 10 9 5 19 31 47 60 80 91 74 87 80 67 51 37 24 12 10 8 8 10 11 15 17 14 7 4 7
Wind_Direction_500mb
101 108 139 141 111 143 134 137 138 95 79 69 96 130 132 146 134 139 125 111 105 100 93 88 84 81 79 79 83 93 106 107
79 115 194 131 141 159 147 101 94 111 73 83 150 128 137 137 140 137 120 112 107 102 94 86 79 74 73 71 65 61 72 118
38 348 118 227 146 165 157 44 127 124 113 102 141 140 132 134 139 129 120 115 108 94 80 72 64 59 54 48 40 33 26 355
139 282 215 117 192 152 142 170 129 119 107 117 154 148 138 133 129 127 124 120 111 96 76 60 57 53 43 32 20 4 341 322
159 254 334 147 160 133 145 148 132 135 101 142 161 150 142 134 133 133 132 125 111 89 72 65 57 42 30 20 4 347 328 308
193 170 246 125 153 178 164 176 147 149 151 167 167 154 147 139 139 140 133 122 113 105 97 75 49 27 15 5 354 345 343 337
186 152 203 149 129 168 174 150 160 201 185 164 166 161 152 147 148 149 141 135 152 159 166 90 16 7 352 349 349 350 356 360
198 174 168 168 167 157 141 162 109 133 151 159 173 167 160 159 159 158 155 163 181 176 181 46 18 341 334 341 346 352 356 357
228 183 163 161 160 162 145 199 177 152 157 166 174 172 168 168 169 164 164 167 164 177 137 45 322 324 328 338 341 346 350 351
143 145 147 162 155 145 169 214 177 173 169 168 174 178 182 177 169 171 165 157 168 172 218 264 295 317 326 332 335 338 344 344
152 154 156 155 178 171 208 194 170 160 171 172 177 181 180 175 172 172 170 167 179 204 243 295 310 315 320 325 328 334 338 339
142 156 163 169 165 149 207 168 170 173 176 176 182 180 176 176 174 178 180 191 204 209 244 288 296 309 313 320 325 331 336 342
67 129 152 134 110 232 174 175 173 182 185 192 192 188 185 184 181 188 200 204 217 242 281 296 301 305 312 316 324 328 337 342
261 128 168 158 240 182 175 174 181 189 190 195 198 199 197 191 191 203 218 203 218 243 281 294 302 306 309 312 319 330 338 339
134 217 149 177 224 180 180 182 176 186 191 199 193 196 191 192 204 208 205 205 214 263 291 289 289 289 296 302 316 329 339 343
181 211 202 210 207 168 178 182 169 171 183 182 184 183 185 192 196 199 198 209 235 250 265 286 280 281 285 297 312 329 342 356
229 187 173 202 188 186 180 183 169 177 182 176 179 181 188 191 192 193 195 205 244 238 251 274 270 266 271 286 303 331 354 17
259 155 213 87 250 199 188 195 189 187 180 182 182 189 191 193 194 195 188 202 215 240 255 269 257 263 262 276 299 334 355 8
217 35 78 49 302 163 217 211 201 198 189 188 195 196 195 194 196 193 192 206 217 244 256 274 256 250 254 278 311 326 332 350
180 103 237 139 261 287 212 221 204 192 184 191 201 192 195 196 197 195 202 207 222 251 261 282 272 269 273 283 282 277 317 352
Wind_Speed_850mb
7 6 7 7 6 6 31 40 7 9 18 11 8 36 28 23 24 23 25 26 27 25 24 23 20 18 16 14 12 11 12 13
8 5 4 8 10 12 8 20 25 28 13 19 16 26 29 29 26 29 31 31 32 33 33 31 29 27 24 19 16 14 12 10
8 9 9 6 5 20 8 1 23 15 11 15 29 39 36 36 34 35 41 41 38 34 30 26 23 23 23 22 19 16 11 6
2 7 4 10 22 22 8 13 23 36 26 11 43 41 42 42 41 42 43 41 35 30 30 29 25 24 23 22 21 19 16 15
10 5 9 10 29 21 19 24 17 41 9 27 57 45 47 50 46 43 39 33 30 26 21 16 21 23 23 23 25 24 22 22
8 9 7 13 20 19 30 7 42 44 13 18 61 53 53 53 49 42 34 27 20 12 7 7 9 17 20 24 28 31 28 22
10 13 6 20 10 29 22 37 19 21 23 50 63 58 59 57 52 41 33 23 16 13 9 4 10 14 20 25 31 35 30 22
16 18 12 30 30 39 15 39 0 33 48 59 70 66 64 63 53 40 32 26 25 15 9 5 9 16 24 31 37 38 37 34
15 46 47 32 30 20 41 9 37 66 62 63 75 69 64 55 46 37 32 25 20 14 5 4 13 22 28 33 39 38 36 37
24 38 48 36 34 17 39 17 57 64 71 69 74 75 66 57 49 43 33 20 15 11 7 9 14 21 31 36 39 39 40 40
47 59 47 43 24 22 38 24 53 59 67 70 73 67 60 58 49 41 36 31 23 18 14 12 18 26 30 34 37 39 41 41
41 42 45 19 17 30 27 52 58 67 67 65 72 70 67 61 54 47 41 31 27 21 12 13 22 26 29 30 33 37 40 41
13 18 11 22 4 10 48 57 64 67 65 63 63 64 67 62 55 47 39 29 21 15 13 19 22 23 24 26 30 34 38 41
5 12 18 11 11 10 59 59 50 56 51 61 65 69 67 62 56 48 40 29 22 15 16 21 22 21 23 25 27 32 33 41
3 14 8 12 7 18 60 49 50 54 55 64 66 76 81 72 62 55 47 36 21 14 19 21 20 20 21 23 25 27 32 36
12 17 15 13 11 19 54 49 56 58 62 67 75 81 77 72 64 59 48 30 15 18 20 20 22 23 21 20 22 22 30 22
11 14 11 20 14 26 53 45 50 62 68 70 77 79 79 73 70 63 45 31 23 18 13 16 22 24 21 18 18 20 21 17
8 6 9 3 9 18 39 54 69 71 62 75 75 79 78 74 65 55 45 22 15 11 12 16 21 24 20 17 15 16 10 10
10 7 5 6 16 9 13 34 56 58 64 76 89 90 83 75 65 48 31 18 12 11 10 14 14 18 17 12 16 11 5 6
7 8 10 7 10 9 5 19 31 47 60 80 91 74 87 80 67 51 37 24 12 10 8 8 10 11 15 17 14 7 4 7
Wind_Direction_850mb
101 108 139 141 111 143 134 137 138 95 79 69 96 130 132 146 134 139 125 111 105 100 93 88 84 81 79 79 83 93 106 107
79 115 194 131 141 159 147 101 94 111 73 83 150 128 137 137 140 137 120 112 107 102 94 86 79 74 73 71 65 61 72 118
38 348 118 227 146 165 157 44 127 124 113 102 141 140 132 134 139 129 120 115 108 94 80 72 64 59 54 48 40 33 26 355
139 282 215 117 192 152 142 170 129 119 107 117 154 148 138 133 129 127 124 120 111 96 76 60 57 53 43 32 20 4 341 322
159 254 334 147 160 133 145 148 132 135 101 142 161 150 142 134 133 133 132 125 111 89 72 65 57 42 30 20 4 347 328 308
193 170 246 125 153 178 164 176 147 149 151 167 167 154 147 139 139 140 133 122 113 105 97 75 49 27 15 5 354 345 343 337
186 152 203 149 129 168 174 150 160 201 185 164 166 161 152 147 148 149 141 135 152 159 166 90 16 7 352 349 349 350 356 360
198 174 168 168 167 157 141 162 109 133 151 159 173 167 160 159 159 158 155 163 181 176 181 46 18 341 334 341 346 352 356 357
228 183 163 161 160 162 145 199 177 152 157 166 174 172 168 168 169 164 164 167 164 177 137 45 322 324 328 338 341 346 350 351
143 145 147 162 155 145 169 214 177 173 169 168 174 178 182 177 169 171 165 157 168 172 218 264 295 317 326 332 335 338 344 344
152 154 156 155 178 171 208 194 170 160 171 172 177 181 180 175 172 172 170 167 179 204 243 295 310 315 320 325 328 334 338 339
142 156 163 169 165 149 207 168 170 173 176 176 182 180 176 176 174 178 180 191 204 209 244 288 296 309 313 320 325 331 336 342
67 129 152 134 110 232 174 175 173 182 185 192 192 188 185 184 181 188 200 204 217 242 281 296 301 305 312 316 324 328 337 342
261 128 168 158 240 182 175 174 181 189 190 195 198 199 197 191 191 203 218 203 218 243 281 294 302 306 309 312 319 330 338 339
134 217 149 177 224 180 180 182 176 186 191 199 193 196 191 192 204 208 205 205 214 263 291 289 289 289 296 302 316 329 339 343
181 211 202 210 207 168 178 182 169 171 183 182 184 183 185 192 196 199 198 209 235 250 265 286 280 281 285 297 312 329 342 356
229 187 173 202 188 186 180 183 169 177 182 176 179 181 188 191 192 193 195 205 244 238 251 274 270 266 271 286 303 331 354 17
259 155 213 87 250 199 188 195 189 187 180 182 182 189 191 193 194 195 188 202 215 240 255 269 257 263 262 276 299 334 355 8
217 35 78 49 302 163 217 211 201 198 189 188 195 196 195 194 196 193 192 206 217 244 256 274 256 250 254 278 311 326 332 350
180 103 237 139 261 287 212 221 204 192 184 191 201 192 195 196 197 195 202 207 222 251 261 282 272 269 273 283 282 277 317 352